Wind_Speed
29 28 28 28 28 30 31 33 33 34 35 34 34 35 35 36 38 39 40 41 41 41 41 41 41 40 39 38 38 40 41 42 43 43 43 45 46 46 45 44 44 44 45
31 31 31 32 32 33 35 37 38 38 39 39 40 40 40 40 40 41 41 42 43 44 43 43 42 42 42 42 42 41 41 41 43 45 46 48 49 50 49 48 47 46 45
32 32 33 34 35 35 36 39 41 42 42 43 44 44 44 44 44 44 44 44 45 46 46 46 45 44 43 43 45 45 44 40 39 40 43 44 44 45 45 45 47 47 47
32 33 35 37 38 38 38 40 43 44 45 45 47 48 48 48 47 47 47 47 47 48 48 49 49 48 46 46 46 48 48 47 44 42 42 42 42 43 44 45 46 46 46
36 37 38 39 41 41 41 43 45 46 47 47 49 50 51 50 49 49 49 49 50 51 51 52 52 51 50 49 48 48 48 49 47 45 44 44 44 44 44 43 42 41 40
40 40 41 43 44 44 44 47 47 48 49 51 52 52 52 51 51 51 52 52 53 53 54 55 55 53 52 51 51 49 48 47 47 45 44 45 46 45 43 41 40 38 37
42 43 44 46 47 47 48 50 52 52 52 53 54 55 55 54 53 55 55 56 55 56 57 58 59 58 56 54 52 50 48 46 45 45 44 45 45 44 41 40 39 39 38
44 45 46 48 49 50 51 53 56 56 55 55 56 57 58 56 55 56 56 57 56 57 59 61 62 62 61 59 54 51 49 45 44 44 43 44 44 42 40 41 41 41 41
45 46 47 49 50 52 53 54 56 58 58 58 59 60 61 61 59 57 56 56 57 59 62 63 62 61 61 62 59 55 50 45 43 43 43 44 44 43 42 44 44 44 44
43 45 47 50 52 54 55 56 58 60 61 62 63 64 64 64 65 64 61 60 61 62 62 64 63 60 59 59 59 55 49 46 44 44 44 45 45 44 45 47 47 47 47
49 51 54 57 59 60 61 62 62 63 64 65 66 66 66 65 63 65 65 64 66 65 63 61 59 58 59 59 56 52 49 48 45 44 46 46 44 44 47 48 48 49 49
56 57 59 61 62 63 64 65 65 65 66 67 67 67 68 67 65 66 68 68 69 65 62 59 57 55 56 58 56 52 49 48 45 45 46 46 44 44 48 49 49 49 50
58 59 61 62 63 63 64 65 67 67 67 68 69 69 70 70 70 70 70 69 68 64 62 58 56 54 52 55 55 53 49 46 44 44 45 46 45 47 49 49 49 50 52
63 64 65 66 65 66 67 68 69 69 69 70 70 71 72 72 73 73 72 69 69 67 61 56 53 51 49 52 52 51 50 45 42 43 45 46 47 49 50 49 50 51 54
68 68 68 68 68 68 68 69 70 70 70 71 73 74 75 75 75 75 73 70 69 69 62 55 54 52 50 52 51 50 50 46 43 43 45 47 48 50 51 52 53 55 57
66 65 65 65 66 67 69 71 73 73 74 74 75 76 76 76 76 75 74 71 67 65 63 55 55 55 54 54 51 49 49 47 45 44 46 48 49 52 53 53 53 54 56
64 66 68 69 70 71 73 75 76 77 78 78 78 78 77 76 75 75 74 70 67 64 63 58 57 57 57 56 52 49 49 49 47 46 47 48 50 53 53 51 51 53 56
69 70 70 72 73 75 76 78 79 80 81 81 82 82 81 78 76 75 74 72 69 65 64 60 57 58 58 57 54 50 49 50 49 48 47 48 50 52 51 50 51 53 57
72 73 73 74 75 76 77 78 79 80 82 83 84 84 83 82 80 78 76 75 72 68 64 61 58 59 59 58 55 52 50 49 50 50 49 49 49 49 49 50 52 55 58
73 73 74 75 76 77 78 79 80 81 82 83 84 83 82 82 80 78 77 74 70 66 61 60 58 57 58 56 56 54 51 48 48 49 50 48 46 47 47 49 52 56 58
75 75 75 76 77 78 80 81 83 84 84 84 82 80 79 79 77 75 74 71 65 61 58 59 57 55 55 54 55 54 49 46 47 49 51 46 44 46 47 50 53 56 57
76 77 77 78 79 80 82 83 84 84 84 83 81 79 77 76 74 71 69 64 59 57 56 57 57 56 54 53 53 52 47 45 45 48 48 45 44 45 47 51 53 55 57
76 77 78 79 80 80 80 81 81 81 82 82 81 79 76 73 71 68 65 60 56 54 55 56 56 54 53 51 52 51 45 42 44 45 45 44 45 46 49 51 53 56 57
78 78 78 78 78 77 78 78 79 79 79 79 78 77 76 74 71 66 62 58 54 53 52 52 51 50 49 49 49 47 42 40 43 45 46 47 46 47 48 50 53 56 56
77 76 75 74 74 74 74 76 78 79 79 78 77 75 74 72 67 62 58 54 51 49 48 47 45 45 46 47 45 44 42 40 40 43 45 45 44 45 48 51 54 55 54
72 73 73 73 74 74 76 78 81 82 81 80 76 73 69 65 60 56 54 51 47 45 44 44 43 43 43 43 41 41 39 37 37 41 42 42 42 45 50 53 55 54 53
Wind_Direction
287 287 291 293 297 300 305 310 315 319 322 324 325 326 327 327 327 328 327 326 324 323 321 318 314 309 302 298 290 279 273 272 274 275 275 276 278 280 283 285 286 286 286
284 283 285 289 292 296 300 305 309 312 314 316 318 318 319 320 321 322 322 321 321 321 319 316 313 309 303 296 293 290 284 281 279 280 281 282 283 285 286 287 286 285 284
280 279 281 284 288 292 296 300 303 306 309 311 312 312 313 315 317 317 316 316 316 316 315 314 311 306 303 298 291 288 287 287 286 286 287 289 290 290 288 286 284 283 283
277 275 276 279 284 290 295 298 300 302 305 308 309 310 310 310 311 312 312 310 310 311 310 311 309 306 301 298 294 288 285 284 285 286 290 292 293 293 293 291 287 285 286
275 272 273 276 281 286 291 294 296 299 301 304 306 307 306 307 308 308 308 307 307 307 307 307 306 303 299 295 292 289 287 284 283 284 287 290 291 294 296 295 292 290 289
279 275 274 275 279 284 287 290 292 295 298 300 302 303 303 304 305 304 304 304 304 304 304 305 304 300 297 294 291 288 286 285 283 282 284 287 290 294 297 295 292 290 290
281 279 276 276 279 283 287 290 292 295 297 299 300 301 301 301 302 302 303 303 303 303 303 304 303 300 296 293 290 286 284 283 283 282 283 286 290 294 296 295 292 292 292
283 282 280 280 281 284 287 290 293 295 297 297 298 299 299 299 300 301 302 302 302 302 304 304 304 301 296 292 287 283 284 282 282 281 283 285 288 292 295 294 293 292 290
288 288 287 286 287 288 290 292 294 295 296 297 297 297 297 298 298 299 298 299 301 303 306 306 306 306 300 295 289 284 283 282 282 281 283 284 287 291 294 294 294 292 289
290 289 288 287 286 287 289 290 291 293 294 295 294 295 296 298 300 300 300 301 301 303 305 305 305 305 302 297 291 286 282 280 281 281 282 283 287 290 291 292 293 292 290
289 288 288 288 288 289 291 292 292 292 293 293 294 295 297 298 299 300 301 302 303 304 305 306 306 303 300 296 293 287 281 280 279 279 281 283 286 287 289 291 292 291 292
289 288 287 287 287 288 289 289 289 290 291 292 293 294 296 297 298 299 300 302 302 305 306 307 306 301 297 295 292 289 283 280 277 277 280 283 285 285 287 289 290 291 294
286 285 285 285 285 286 287 287 287 288 289 290 292 293 294 295 297 298 300 301 302 305 306 308 305 299 296 294 293 291 287 281 276 277 280 283 284 285 288 289 289 292 294
282 282 282 283 283 284 284 285 286 287 289 290 291 292 293 295 296 297 299 301 302 304 306 308 303 297 292 291 292 291 288 285 280 278 279 282 283 285 287 288 289 292 295
282 282 282 283 283 283 284 284 286 287 288 288 289 290 292 293 295 296 297 299 301 303 303 304 301 296 290 289 289 288 287 286 282 279 280 282 282 284 288 289 291 294 295
285 286 286 285 285 285 285 285 286 286 287 288 288 289 290 291 292 293 294 296 298 300 298 300 297 295 291 289 287 285 286 285 283 281 282 283 282 285 290 293 295 294 295
287 288 288 287 287 286 286 286 286 287 287 287 287 287 288 289 289 290 292 294 295 295 295 296 293 291 291 289 285 283 284 283 282 280 281 282 282 286 292 294 294 295 298
286 287 287 287 287 287 287 287 287 288 288 288 287 287 287 287 287 288 289 291 291 291 292 293 291 287 288 288 285 282 281 281 280 278 279 280 281 286 291 292 295 298 301
286 286 286 285 285 285 285 286 286 285 285 285 285 284 285 285 286 286 286 287 288 289 289 287 287 284 285 286 284 281 279 278 279 277 277 278 281 286 290 293 297 300 302
284 284 283 283 283 283 283 283 283 283 283 283 284 284 285 285 286 286 286 287 287 287 284 282 283 283 283 285 284 283 280 278 278 277 276 279 283 286 290 295 299 301 304
282 281 281 280 280 281 281 281 281 281 282 283 284 286 286 286 287 287 286 287 286 284 280 278 279 281 282 283 283 283 281 277 276 276 276 281 286 289 292 295 298 301 304
284 282 281 280 280 279 280 280 280 281 281 283 284 284 285 285 286 286 285 284 282 280 277 275 275 278 280 281 281 282 278 274 275 276 277 283 290 291 292 294 298 302 307
283 282 281 280 279 278 279 280 282 282 283 283 283 283 283 283 284 283 281 279 277 276 274 272 272 275 277 278 279 278 274 272 275 277 278 285 291 291 292 294 299 304 308
284 283 282 281 281 280 280 281 282 283 283 283 284 284 283 283 283 282 279 277 276 274 270 270 271 274 275 274 273 271 268 270 273 275 277 286 292 291 292 297 302 306 309
285 284 284 284 283 284 284 284 284 283 283 283 283 284 284 283 282 280 277 274 271 269 266 266 268 272 273 271 265 264 265 271 273 274 279 288 291 291 295 300 304 307 309
286 286 286 286 285 286 286 286 285 284 283 282 282 282 281 281 280 277 273 269 266 266 265 263 266 271 270 266 260 260 265 272 272 271 277 287 291 296 301 304 306 307 309
Height
5843 5841 5840 5837 5835 5832 5830 5827 5824 5822 5819 5816 5813 5810 5806 5803 5799 5795 5791 5787 5783 5779 5775 5771 5767 5763 5759 5754 5751 5748 5745 5744 5741 5739 5735 5732 5729 5726 5724 5722 5719 5716 5714
5836 5835 5833 5831 5829 5826 5824 5821 5818 5815 5813 5810 5807 5803 5800 5796 5792 5789 5785 5780 5775 5771 5767 5763 5759 5755 5752 5748 5744 5740 5737 5734 5732 5729 5725 5722 5720 5717 5714 5711 5708 5705 5702
5830 5829 5827 5825 5822 5820 5817 5815 5812 5809 5806 5803 5800 5797 5793 5789 5785 5782 5777 5773 5768 5763 5758 5754 5750 5746 5742 5739 5735 5732 5728 5725 5722 5719 5715 5712 5709 5706 5703 5699 5696 5693 5690
5822 5821 5820 5818 5815 5814 5812 5809 5805 5802 5799 5796 5792 5789 5785 5781 5777 5773 5769 5764 5760 5755 5749 5745 5740 5736 5732 5728 5725 5722 5719 5716 5713 5709 5706 5702 5698 5695 5692 5689 5685 5681 5678
5815 5813 5813 5811 5809 5807 5805 5801 5798 5794 5791 5787 5783 5780 5776 5772 5768 5764 5760 5755 5750 5746 5740 5735 5730 5725 5720 5716 5712 5710 5707 5704 5701 5698 5696 5692 5688 5684 5681 5678 5674 5670 5667
5807 5806 5805 5803 5800 5799 5796 5792 5788 5785 5781 5777 5774 5770 5766 5762 5758 5754 5749 5745 5740 5735 5730 5725 5720 5715 5710 5704 5700 5697 5694 5692 5689 5686 5684 5681 5677 5674 5670 5666 5663 5659 5656
5799 5797 5796 5794 5791 5789 5786 5782 5778 5775 5771 5766 5763 5759 5756 5752 5748 5742 5738 5734 5729 5724 5718 5714 5710 5705 5699 5693 5688 5683 5680 5679 5676 5674 5671 5669 5666 5663 5659 5655 5652 5648 5645
5790 5788 5786 5784 5782 5779 5776 5772 5767 5764 5760 5755 5751 5746 5743 5742 5737 5731 5727 5722 5717 5712 5707 5702 5696 5692 5688 5682 5676 5671 5667 5665 5664 5662 5660 5658 5655 5652 5648 5644 5640 5637 5633
5781 5779 5777 5775 5773 5769 5766 5761 5756 5751 5748 5743 5738 5733 5728 5726 5723 5722 5717 5712 5706 5701 5695 5688 5682 5679 5674 5669 5665 5659 5655 5653 5652 5651 5648 5646 5643 5640 5637 5633 5630 5626 5621
5772 5768 5765 5762 5759 5755 5752 5748 5743 5738 5734 5730 5724 5719 5715 5711 5707 5705 5703 5699 5694 5688 5682 5674 5669 5664 5660 5656 5652 5647 5643 5640 5640 5639 5636 5634 5632 5629 5625 5622 5618 5614 5610
5763 5759 5754 5750 5746 5742 5739 5735 5730 5725 5720 5715 5710 5705 5701 5697 5693 5688 5685 5683 5678 5674 5668 5662 5657 5651 5646 5642 5638 5635 5631 5628 5627 5626 5624 5622 5620 5617 5613 5610 5606 5602 5598
5751 5747 5742 5738 5733 5729 5725 5721 5715 5711 5706 5701 5696 5691 5686 5682 5679 5674 5669 5667 5662 5659 5653 5649 5644 5638 5633 5628 5625 5623 5619 5616 5615 5614 5612 5611 5608 5605 5601 5597 5593 5589 5585
5736 5732 5727 5723 5719 5714 5710 5705 5700 5696 5692 5687 5683 5678 5672 5668 5664 5659 5655 5651 5647 5645 5640 5637 5631 5625 5620 5615 5612 5609 5607 5605 5603 5602 5601 5599 5596 5593 5589 5585 5581 5577 5573
5720 5715 5711 5707 5703 5699 5694 5689 5685 5681 5677 5673 5668 5663 5657 5653 5649 5644 5640 5635 5631 5629 5627 5624 5619 5613 5607 5603 5600 5596 5594 5593 5592 5590 5589 5587 5584 5581 5577 5572 5568 5565 5560
5706 5701 5696 5691 5687 5683 5679 5674 5670 5666 5662 5657 5652 5647 5642 5638 5634 5629 5625 5620 5615 5611 5613 5612 5606 5602 5596 5591 5588 5584 5581 5581 5579 5578 5577 5574 5571 5568 5564 5560 5557 5553 5547
5691 5687 5682 5677 5671 5666 5662 5658 5654 5650 5645 5641 5636 5631 5626 5622 5618 5613 5609 5606 5601 5596 5594 5598 5592 5588 5583 5580 5576 5572 5569 5568 5567 5566 5564 5562 5558 5555 5552 5548 5544 5539 5533
5676 5672 5667 5662 5657 5651 5646 5641 5636 5632 5627 5622 5617 5613 5609 5606 5601 5596 5593 5590 5587 5582 5578 5582 5579 5574 5570 5567 5564 5560 5558 5556 5555 5554 5552 5550 5547 5544 5540 5536 5531 5526 5520
5660 5654 5649 5644 5638 5633 5627 5621 5616 5612 5607 5602 5597 5593 5589 5587 5583 5580 5577 5574 5571 5568 5563 5562 5563 5559 5556 5554 5551 5549 5546 5544 5543 5541 5540 5537 5535 5531 5528 5523 5518 5512 5506
5642 5636 5630 5625 5619 5614 5608 5602 5596 5591 5586 5581 5576 5572 5569 5566 5563 5561 5559 5557 5555 5552 5548 5545 5546 5544 5542 5540 5538 5535 5533 5532 5531 5529 5527 5524 5521 5518 5514 5509 5504 5498 5491
5622 5617 5611 5605 5599 5593 5587 5581 5575 5571 5566 5561 5557 5552 5550 5546 5543 5541 5538 5537 5536 5534 5531 5529 5528 5528 5527 5526 5524 5522 5520 5519 5518 5517 5514 5512 5509 5505 5500 5496 5490 5484 5477
5602 5596 5590 5585 5579 5572 5565 5558 5552 5549 5545 5542 5538 5534 5530 5527 5523 5520 5517 5517 5516 5515 5513 5512 5512 5512 5512 5512 5511 5509 5507 5506 5504 5504 5501 5500 5497 5492 5487 5482 5476 5470 5463
5582 5576 5570 5564 5558 5551 5543 5535 5529 5526 5523 5520 5517 5514 5511 5507 5504 5500 5498 5497 5497 5496 5496 5495 5496 5496 5497 5498 5497 5495 5494 5492 5492 5491 5488 5487 5484 5480 5475 5469 5463 5456 5448
5561 5555 5549 5542 5536 5530 5522 5514 5508 5504 5500 5497 5495 5492 5491 5489 5484 5481 5479 5479 5479 5479 5479 5478 5478 5480 5482 5483 5483 5482 5481 5480 5480 5479 5476 5475 5472 5468 5463 5457 5450 5443 5435
5537 5531 5525 5520 5514 5509 5502 5495 5489 5485 5482 5478 5474 5471 5469 5468 5465 5461 5459 5460 5461 5461 5461 5461 5462 5464 5466 5467 5468 5470 5468 5468 5468 5467 5466 5464 5460 5455 5450 5444 5437 5429 5421
5515 5509 5504 5499 5494 5489 5483 5476 5468 5464 5461 5458 5455 5452 5447 5445 5444 5441 5439 5440 5442 5444 5444 5445 5447 5449 5450 5451 5453 5456 5456 5457 5456 5455 5454 5452 5448 5443 5438 5431 5424 5416 5407
5493 5488 5484 5478 5473 5468 5462 5455 5446 5440 5438 5436 5434 5431 5427 5424 5423 5422 5421 5422 5425 5428 5429 5430 5433 5435 5436 5437 5439 5443 5444 5444 5444 5444 5443 5440 5436 5431 5425 5418 5410 5402 5393